Weather in Oxnard

United States     34°11′32″N   119°10′42″W
temp.,
°C
wind,
m/s
gust,
m/s
humid.,
%
clouds,
%
prec.,
mm/h
press.,
hPa
HPBL,
m
25 may, wed
wed2523:00+14s218938 0.0 1011194
02:00+15s229073 0.0 1011273
05:00+15s11885 0.1 1010149
08:00+16ssw218415 0.0 1012252
11:00+17sw438054 0.0 1012300
14:00+17ssw437961 0.1 1012279
17:00+17ssw338152 0.1 1011296
20:00+16ssw228558 0.1 1012338
26 may, thu
thu2623:00+16ssw118464 0.1 1013316
02:00+16s228560 0.0 1012158
05:00+16sse118658 0.0 101269
08:00+17s118150 0.0 1014162
11:00+17sw437850 0.0 1014363
14:00+17sw437846 0.0 1014362
17:00+16sw438147 0.0 1014332
20:00+16wsw3384100 0.0 1015345
27 may, fri
fri2723:00+15w228691 0.0 1016314
02:00+15w118399 0.0 1015283
05:00+15w118722 0.0 1015167
08:00+15wsw118242 0.0 1016278
11:00+16wsw438096 0.0 1016365
14:00+16wsw557877 0.0 1016371
17:00+17w5575100 0.0 1014329
20:00+15w4581100 0.0 1014274
28 may, sat
sat2823:00+15wsw118261 0.0 1014207
02:00+15ese1180100 0.0 1012143
05:00+15sse1179100 0.0 101293
08:00+16ssw11785 0.0 1013208
11:00+17sw447980 0.0 1013415
14:00+17sw457746 0.0 1012444
17:00+18ssw22725 0.0 1009328
20:00+19wsw13664 0.0 1007193
29 may, sun
sun2923:00+18wsw12695 0.0 1008113
02:00+17s127249 0.0 100761
05:00+16se1276100 0.0 100759
08:00+17s22755 0.0 1009214
11:00+16sw547748 0.0 1009344
14:00+19wsw56510 0.0 1006335
17:00+23w1114320 0.0 1003583
20:00+18w1215510 0.0 1004260